Regional Weather Roundup
Issued by NWS

Home | Current Version | Previous Version | Graphics & Text | Print | Product List | Glossary On
Versions: 1 2 3 4 5 6 7 8 9 10 11 12 13 14 15 16 17 18 19 20 21 22 23 24 25 26 27 28 29 30 31 32 33 34 35 36 37 38 39 40 41 42 43 44 45 46 47 48 49 50
000
ASUS43 KBIS 302302
RWRND

NORTH DAKOTA REGIONAL WEATHER ROUNDUP
NATIONAL WEATHER SERVICE BISMARCK ND
600 PM CDT MON MAY 30 2016

NOTE: "FAIR" INDICATES FEW OR NO CLOUDS BELOW 12,000 FEET WITH NO
SIGNIFICANT WEATHER AND/OR OBSTRUCTIONS TO VISIBILITY.


NDZ001>003-009>011-017-310000-
NORTHWEST NORTH DAKOTA

CITY           SKY/WX    TMP DP  RH WIND       PRES   REMARKS
WILLISTON      LGT RAIN  56  51  84 N8        29.90F
MINOT          CLOUDY    61  53  75 W8        29.85F
MINOT AFB      CLOUDY    61  54  76 W7        29.85F
$$

NDZ018>021-031>035-040>046-310000-
SOUTHWEST NORTH DAKOTA

CITY           SKY/WX    TMP DP  RH WIND       PRES   REMARKS
BISMARCK       CLOUDY    65  55  70 NE9G22    29.78F
DICKINSON      CLOUDY    57  53  86 N9        29.85S
GARRISON         N/A     57  54  89 N9        29.85F
HETTINGER ARPT CLOUDY    56  54  93 NW7       29.88R
$$

NDZ004>008-012>016-024-026-027-054-310000-
NORTHEAST NORTH DAKOTA

CITY           SKY/WX    TMP DP  RH WIND       PRES   REMARKS
GRAND FORKS    LGT RAIN  63  56  78 N10       29.84R
GRND FRKS AFB  RAIN      62  57  82 NE8       29.84F
DEVILS LAKE    LGT RAIN  63  55  75 SE8       29.84F
$$

NDZ022-023-025-028>030-036>039-047>053-310000-
SOUTHEAST NORTH DAKOTA

CITY           SKY/WX    TMP DP  RH WIND       PRES   REMARKS
FARGO          PTSUNNY   85  45  24 S17G24    29.76F
JAMESTOWN      LGT RAIN  65  57  75 N20       29.80R
$$





USA.gov is the U.S. government's official web portal to all federal, state and local government web resources and services.